Hourly Data Report for October 08, 2016

All times are specified in Local Standard Time (LST). Add 1 hour to adjust for Daylight Saving Time where and when it is observed.

PENTICTON A
BRITISH COLUMBIA

49°27'45.000" N
119°36'08.000" W
344.40 m
1126146
71889
YYF

Download Data

Hourly Data (October 2016)
Hourly Data Report for October 8, 2016
Temp Definition
°C
Dew Point Temp Definition
°C
Rel Hum Definition
%
Wind Dir Definition
10's deg

Wind Spd Definition
km/h
Visibility Definition
km
Stn Press Definition
kPa
Hmdx Definition


Wind Chill Definition


Weather Definition


TIME
00:00 Legend Double Dagger 10.2 1.1 53 34 9 24.1 97.69     LegendNANA
01:00 Legend Double Dagger 9.4 1.6 58 1 5 24.1 97.66     Mostly Cloudy
02:00 Legend Double Dagger 8.4 2.4 66 36 9 24.1 97.62     LegendNANA
03:00 Legend Double Dagger 8.5 2.5 66 36 1 24.1 97.58     LegendNANA
04:00 Legend Double Dagger 8.1 3.6 73 6 4 24.1 97.61     Rain Showers
05:00 Legend Double Dagger 8.5 5.6 82 36 2 19.3 97.63     Rain
06:00 Legend Double Dagger 7.1 6.5 96 3 6 19.3 97.56     Rain
07:00 Legend Double Dagger 7.4 6.2 92 34 6 24.1 97.47     Rain
08:00 Legend Double Dagger 8.4 7.0 91 2 4 24.1 97.38     LegendNANA
09:00 Legend Double Dagger 10.5 6.7 77 16 16 24.1 97.26     LegendNANA
10:00 Legend Double Dagger 11.9 6.2 68 19 40 24.1 97.09     Cloudy
11:00 Legend Double Dagger 11.9 6.6 70 19 43 24.1 97.06     LegendNANA
12:00 Legend Double Dagger 11.6 7.4 75 18 33 24.1 97.00     LegendNANA
13:00 Legend Double Dagger 11.8 7.2 73 19 36 24.1 96.95     Cloudy
14:00 Legend Double Dagger 11.8 8.3 79 20 31 24.1 96.90     LegendNANA
15:00 Legend Double Dagger 12.6 8.1 74 20 33 24.1 96.83     LegendNANA
16:00 Legend Double Dagger 13.7 8.6 71 20 26 24.1 96.76     Cloudy
17:00 Legend Double Dagger 13.6 9.1 74 19 22 24.1 96.70     LegendNANA
18:00 Legend Double Dagger 14.7 9.6 71 17 18 24.1 96.62     LegendNANA
19:00 Legend Double Dagger 14.5 9.6 72 15 4 24.1 96.64     Cloudy
20:00 Legend Double Dagger 11.4 9.0 85 33 12 24.1 96.61     LegendNANA
21:00 Legend Double Dagger 11.4 8.6 83 34 10 24.1 96.62     LegendNANA
22:00 Legend Double Dagger 10.6 9.4 92   0 24.1 96.63     Rain
23:00 Legend Double Dagger 10.4 9.5 94 35 8 24.1 96.64     Rain

Notes on Data Quality.

Legend

  • E = Estimated
  • M = Missing
  • NA = Not Available
  • ‡ = Partner data that is not subject to review by the National Climate Archives
Date modified: